Regional Weather Roundup
Issued by NWS

Home | Current Version | Previous Version | Graphics & Text | Print | Product List | Glossary On
Versions: 1 2 3 4 5 6 7 8 9 10 11 12 13 14 15 16 17 18 19 20 21 22 23 24 25 26 27 28 29 30 31 32 33 34 35 36 37 38 39 40 41 42 43 44 45 46 47 48 49 50
000
ASUS44 KMEG 261510
RWRTN
TENNESSEE HOURLY STATE WEATHER ROUNDUP
NATIONAL WEATHER SERVICE MEMPHIS TN
1000 AM CDT WED JUL 26 2017

TNZ002-004-019-021-049-052-054-088>092-261600-
WEST TENNESSEE

CITY           SKY/WX    TMP DP  RH WIND       PRES   REMARKS
MEMPHIS INTL   SUNNY     89  76  65 SW7       30.11S HX 100
NWS MEMPHIS      N/A     88 N/A N/A MISG        N/A
JACKSON        SUNNY     88  78  72 W6        30.10F HX 101
SOMERVILLE       N/A     88  77  70 VRB5      30.10S HX 100
COVINGTON      SUNNY     88  77  70 VRB6      30.09F HX 100
UNION CITY     SUNNY     88  79  74 SW6       30.07F HX 102
BOLIVAR        SUNNY     90  77  66 W5        30.10F HX 102
PARIS          SUNNY     86  79  79 CALM      30.09S HX  99
HUNTINGDON     SUNNY     88  79  74 SW6       30.10S HX 102
LEXINGTON      SUNNY     86  77  74 VRB3      30.11S HX  97
SELMER         SUNNY     86  75  70 W7        30.12S HX  95
SAVANNAH       SUNNY     88  77  70 W3        30.11S HX 100
$$

TNZ008-025-027-028-033-062-065-066-261600-
NORTH MIDDLE TENNESSEE

CITY           SKY/WX    TMP DP  RH WIND       PRES   REMARKS
NASHVILLE      MOSUNNY   91  74  57 N5        30.12F HX 100
PORTLAND       SUNNY     88  75  66 CALM      30.11F HX  97
CLARKSVILLE    SUNNY     87  75  67 VRB5      30.10F HX  96
SMYRNA         SUNNY     87  76  69 SE3       30.13S HX  97
COOKEVILLE     MOSUNNY   84  72  65 SW6       30.15S
GALLATIN       SUNNY     86  75  70 CALM      30.14F HX  95
CROSSVILLE     PTSUNNY   80  67  64 SW3       30.21R
$$

TNZ061-075-076-078-094-096-097-261600-
SOUTH MIDDLE TENNESSEE

CITY           SKY/WX    TMP DP  RH WIND       PRES   REMARKS
FAYETTEVILLE   SUNNY     84  75  74 CALM      30.15R HX  92
TULLAHOMA      SUNNY     84  72  65 W5        30.17R
WINCHESTER     MOSUNNY   86  72  62 CALM      30.15R HX  92
MCMINNVILLE    SUNNY     88  75  66 SW3       30.16R HX  97
COLUMBIA       SUNNY     84  79  84 CALM      30.11S HX  96
SHELBYVILLE    SUNNY     86  75  70 CALM      30.15R HX  95
$$

TNZ017-018-042-046-047-261600-
NORTHEAST TENNESSEE

CITY           SKY/WX    TMP DP  RH WIND       PRES   REMARKS
TRI CITIES     MOSUNNY   80  67  64 CALM      30.19S
ELIZABETHTON   SUNNY     81  68  65 CALM      30.19S
$$

TNZ012-013-036-069-073-074-261600-
CENTRAL EAST TENNESSEE

CITY           SKY/WX    TMP DP  RH WIND       PRES   REMARKS
KNOXVILLE      MOSUNNY   84  68  58 NW3       30.14F
OAK RIDGE      MOSUNNY   83  69  62 E3        30.17S
DOWNTOWN KNOXV SUNNY     82  72  69 CALM      30.15R
GATLINBURG     SUNNY     86  64  48 CALM      30.14F
MORRISTOWN     SUNNY     86  66  51 CALM      30.16S
JACKSBORO      SUNNY     81  70  69 CALM      30.21R
$$

TNZ083-085-099-261600-
SOUTHEAST TENNESSEE

CITY           SKY/WX    TMP DP  RH WIND       PRES   REMARKS
CHATTANOOGA    MOSUNNY   86  70  58 CALM      30.14S HX  90
DAYTON         SUNNY     82  73  74 CALM      30.14R
$$

SKY/WX REPORTED AS FAIR MEANS FEW OR NO CLOUDS BELOW
12 THOUSAND FEET.





USA.gov is the U.S. government's official web portal to all federal, state and local government web resources and services.